When you browse on this site, cookies collect data to enhance your experience and personalize the content and advertising you see.
Visit our Privacy Policy to learn more. By continuing to use the site, you agree to this use of cookies and data.
  • în România
  • Lista ţărilor
  • Pe 7 zile
  • Temperatura apei
  • Meteo pe hartă
  • Widget-uri
  • user-avatar
    Intrare

    Meteo pe oră la Coasta de Aur

    Astăzi, 2 Iunie, Marţi

    Timp Temperatura Precipitaţii Vânt Presiune Umiditate
    00:00 +14°C° 0 mm 4 m/s 756 mmHg 91%
    01:00 +13°C° 0 mm 4 m/s 756 mmHg 92%
    02:00 +13°C° 0 mm 4 m/s 756 mmHg 90%
    03:00 +12°C° 0 mm 4 m/s 757 mmHg 88%
    04:00 +12°C° 0 mm 4 m/s 757 mmHg 85%
    05:00 +11°C° 0 mm 4 m/s 758 mmHg 85%
    06:00 +11°C° 0 mm 4 m/s 758 mmHg 85%
    07:00 +10°C° 0 mm 4 m/s 759 mmHg 85%
    08:00 +12°C° 0 mm 4 m/s 759 mmHg 70%
    09:00 +13°C° 0 mm 4 m/s 759 mmHg 55%
    10:00 +15°C° 0 mm 5 m/s 759 mmHg 42%
    11:00 +16°C° 0 mm 5 m/s 759 mmHg 37%
    12:00 +17°C° 0 mm 5 m/s 758 mmHg 33%
    13:00 +19°C° 0 mm 5 m/s 758 mmHg 28%
    14:00 +17°C° 0 mm 5 m/s 758 mmHg 31%
    15:00 +17°C° 0 mm 5 m/s 758 mmHg 34%
    16:00 +16°C° 0 mm 5 m/s 758 mmHg 38%
    17:00 +14°C° 0 mm 5 m/s 759 mmHg 43%
    18:00 +12°C° 0 mm 5 m/s 759 mmHg 49%
    19:00 +9°C° 0 mm 5 m/s 760 mmHg 54%
    20:00 +10°C° 0 mm 4 m/s 760 mmHg 57%
    21:00 +8°C° 0 mm 4 m/s 761 mmHg 60%
    22:00 +8°C° 0 mm 3 m/s 761 mmHg 63%
    23:00 +8°C° 0 mm 3 m/s 761 mmHg 65%

    Mâine, 3 Iunie, Miercuri

    Timp Temperatura Precipitaţii Vânt Presiune Umiditate
    00:00 +7°C° 0 mm 2 m/s 761 mmHg 67%
    01:00 +7°C° 0 mm 2 m/s 761 mmHg 69%
    02:00 +7°C° 0 mm 2 m/s 761 mmHg 70%
    03:00 +7°C° 0 mm 2 m/s 761 mmHg 71%
    04:00 +6°C° 0 mm 2 m/s 761 mmHg 72%
    05:00 +7°C° 0 mm 2 m/s 761 mmHg 72%
    06:00 +7°C° 0 mm 2 m/s 761 mmHg 71%
    07:00 +7°C° 0 mm 2 m/s 762 mmHg 70%
    08:00 +10°C° 0 mm 2 m/s 762 mmHg 59%
    09:00 +14°C° 0 mm 1 m/s 762 mmHg 49%
    10:00 +19°C° 0 mm 1 m/s 762 mmHg 39%
    11:00 +20°C° 0 mm 1 m/s 761 mmHg 37%
    12:00 +21°C° 0 mm 1 m/s 761 mmHg 35%
    13:00 +22°C° 0 mm 1 m/s 760 mmHg 33%
    14:00 +20°C° 0 mm 2 m/s 761 mmHg 39%
    15:00 +19°C° 0 mm 2 m/s 761 mmHg 46%
    16:00 +17°C° 0 mm 3 m/s 761 mmHg 52%
    17:00 +16°C° 0 mm 3 m/s 762 mmHg 59%
    18:00 +13°C° 0 mm 4 m/s 763 mmHg 66%
    19:00 +11°C° 0 mm 4 m/s 763 mmHg 73%
    20:00 +11°C° 0 mm 4 m/s 764 mmHg 74%
    21:00 +11°C° 0 mm 4 m/s 764 mmHg 76%
    22:00 +11°C° 0 mm 4 m/s 765 mmHg 77%
    23:00 +10°C° 0 mm 5 m/s 765 mmHg 78%

    Poimâine, 4 Iunie, Joi

    Timp Temperatura Precipitaţii Vânt Presiune Umiditate
    00:00 +10°C° 0 mm 5 m/s 765 mmHg 79%
    01:00 +9°C° 0 mm 5 m/s 765 mmHg 81%
    02:00 +9°C° 0 mm 5 m/s 765 mmHg 80%
    03:00 +8°C° 0 mm 5 m/s 765 mmHg 80%
    04:00 +8°C° 0 mm 5 m/s 765 mmHg 80%
    05:00 +9°C° 0 mm 5 m/s 765 mmHg 77%
    06:00 +9°C° 0 mm 5 m/s 766 mmHg 75%
    07:00 +10°C° 0 mm 5 m/s 766 mmHg 73%
    08:00 +13°C° 0 mm 5 m/s 767 mmHg 69%
    09:00 +15°C° 0 mm 5 m/s 767 mmHg 64%
    10:00 +17°C° 0 mm 6 m/s 767 mmHg 60%
    11:00 +17°C° 0 mm 6 m/s 767 mmHg 60%
    12:00 +17°C° 0 mm 6 m/s 766 mmHg 60%
    13:00 +17°C° 0 mm 6 m/s 766 mmHg 60%
    14:00 +17°C° 0.1 mm 6 m/s 766 mmHg 62%
    15:00 +17°C° 0.1 mm 6 m/s 765 mmHg 65%
    16:00 +16°C° 0.1 mm 5 m/s 765 mmHg 67%
    17:00 +15°C° 0 mm 5 m/s 766 mmHg 74%
    18:00 +13°C° 0 mm 5 m/s 766 mmHg 81%
    19:00 +12°C° 0 mm 5 m/s 767 mmHg 88%
    20:00 +12°C° 0 mm 5 m/s 767 mmHg 86%
    21:00 +12°C° 0 mm 4 m/s 767 mmHg 84%
    22:00 +12°C° 0 mm 4 m/s 767 mmHg 82%
    23:00 +12°C° 0.1 mm 4 m/s 767 mmHg 84%

    5 Iunie, Vineri

    Timp Temperatura Precipitaţii Vânt Presiune Umiditate
    00:00 +11°C° 0.1 mm 4 m/s 767 mmHg 87%
    01:00 +10°C° 0.1 mm 4 m/s 766 mmHg 90%
    02:00 +11°C° 0.1 mm 4 m/s 766 mmHg 87%
    03:00 +11°C° 0.1 mm 4 m/s 766 mmHg 85%
    04:00 +11°C° 0.1 mm 4 m/s 766 mmHg 82%
    05:00 +11°C° 0 mm 4 m/s 766 mmHg 83%
    06:00 +11°C° 0 mm 4 m/s 767 mmHg 84%
    07:00 +11°C° 0 mm 4 m/s 767 mmHg 84%
    08:00 +13°C° 0 mm 4 m/s 767 mmHg 76%
    09:00 +17°C° 0 mm 4 m/s 767 mmHg 67%
    10:00 +19°C° 0 mm 4 m/s 767 mmHg 59%
    11:00 +20°C° 0 mm 4 m/s 766 mmHg 57%
    12:00 +21°C° 0 mm 4 m/s 765 mmHg 55%
    13:00 +21°C° 0 mm 4 m/s 765 mmHg 53%
    14:00 +21°C° 0.1 mm 4 m/s 764 mmHg 57%
    15:00 +20°C° 0.1 mm 4 m/s 764 mmHg 60%
    16:00 +20°C° 0.1 mm 4 m/s 764 mmHg 63%
    17:00 +18°C° 0.1 mm 4 m/s 764 mmHg 71%
    18:00 +15°C° 0.1 mm 4 m/s 765 mmHg 80%
    19:00 +13°C° 0.1 mm 3 m/s 765 mmHg 89%
    20:00 +12°C° 0.1 mm 3 m/s 765 mmHg 90%
    21:00 +12°C° 0.1 mm 3 m/s 765 mmHg 91%
    22:00 +12°C° 0.1 mm 3 m/s 765 mmHg 92%
    23:00 +11°C° 0.1 mm 3 m/s 765 mmHg 92%

    6 Iunie, Sâmbătă

    Timp Temperatura Precipitaţii Vânt Presiune Umiditate
    00:00 +11°C° 0.1 mm 3 m/s 764 mmHg 92%
    01:00 +11°C° 0.1 mm 3 m/s 764 mmHg 92%
    02:00 +11°C° 0.1 mm 3 m/s 764 mmHg 93%
    03:00 +11°C° 0.1 mm 3 m/s 764 mmHg 93%
    04:00 +12°C° 0.1 mm 2 m/s 763 mmHg 94%
    05:00 +12°C° 0 mm 2 m/s 764 mmHg 94%
    06:00 +12°C° 0 mm 2 m/s 764 mmHg 94%
    07:00 +12°C° 0 mm 2 m/s 764 mmHg 94%
    08:00 +15°C° 0.1 mm 2 m/s 764 mmHg 83%
    09:00 +18°C° 0.1 mm 2 m/s 764 mmHg 72%
    10:00 +20°C° 0.1 mm 2 m/s 764 mmHg 61%
    11:00 +21°C° 0.1 mm 3 m/s 763 mmHg 61%
    12:00 +21°C° 0.1 mm 3 m/s 763 mmHg 60%
    13:00 +21°C° 0.1 mm 3 m/s 762 mmHg 59%
    14:00 +21°C° 0.1 mm 3 m/s 762 mmHg 65%
    15:00 +20°C° 0.1 mm 3 m/s 761 mmHg 71%
    16:00 +19°C° 0.1 mm 3 m/s 761 mmHg 77%
    17:00 +17°C° 0 mm 3 m/s 762 mmHg 82%
    18:00 +16°C° 0 mm 2 m/s 762 mmHg 87%
    19:00 +14°C° 0 mm 2 m/s 762 mmHg 93%
    20:00 +14°C° 0 mm 2 m/s 762 mmHg 93%
    21:00 +14°C° 0 mm 2 m/s 762 mmHg 93%
    22:00 +13°C° 0 mm 2 m/s 762 mmHg 94%
    23:00 +13°C° 0.1 mm 2 m/s 762 mmHg 93%

    7 Iunie, Duminică

    Timp Temperatura Precipitaţii Vânt Presiune Umiditate
    00:00 +14°C° 0.1 mm 2 m/s 762 mmHg 93%
    01:00 +14°C° 0.1 mm 2 m/s 762 mmHg 93%
    02:00 +13°C° 0.1 mm 2 m/s 762 mmHg 93%
    03:00 +13°C° 0.1 mm 2 m/s 762 mmHg 94%
    04:00 +13°C° 0.1 mm 2 m/s 761 mmHg 94%
    05:00 +13°C° 0.1 mm 2 m/s 762 mmHg 94%
    06:00 +13°C° 0.1 mm 2 m/s 762 mmHg 93%
    07:00 +13°C° 0.1 mm 2 m/s 762 mmHg 93%
    08:00 +16°C° 0.1 mm 2 m/s 762 mmHg 82%
    09:00 +19°C° 0.1 mm 1 m/s 762 mmHg 72%
    10:00 +22°C° 0.1 mm 1 m/s 762 mmHg 62%
    11:00 +22°C° 0.2 mm 1 m/s 761 mmHg 58%
    12:00 +23°C° 0.2 mm 1 m/s 761 mmHg 54%
    13:00 +24°C° 0.2 mm 1 m/s 760 mmHg 50%
    14:00 +21°C° 0.3 mm 2 m/s 760 mmHg 60%
    15:00 +20°C° 0.3 mm 2 m/s 760 mmHg 70%
    16:00 +18°C° 0.3 mm 2 m/s 760 mmHg 80%
    17:00 +17°C° 0.2 mm 2 m/s 761 mmHg 84%
    18:00 +15°C° 0.2 mm 2 m/s 761 mmHg 87%
    19:00 +14°C° 0.2 mm 2 m/s 762 mmHg 91%
    20:00 +14°C° 0.1 mm 1 m/s 762 mmHg 91%
    21:00 +13°C° 0.1 mm 1 m/s 762 mmHg 92%
    22:00 +13°C° 0.1 mm 1 m/s 762 mmHg 92%
    23:00 +13°C° 0.1 mm 2 m/s 762 mmHg 93%
    Arată mai mult